Location: Fauquembergues
(50.6005°N, 2.0987°E)
Time: 08:45:19
(UTC+00:00)

Meteor 1-28 Rocket - Pass Details

Date: 14 July 2020
Orbit: 505 x 522 km, 97.3° (Epoch: 14 August)

Event Time Altitude Azimuth Distance (km) Brightness Sun altitude
Exits shadow 02:31:18 - 162° (SSE) 2,508 6.3 -10.2°
Reaches altitude 10° 02:33:09 10° 161° (SSE) 1,722 5.5 -10.0°
Maximum altitude 02:36:51 77° 75° (ENE) 529 3.3 -9.7°
Drops below altitude 10° 02:40:37 10° 349° (N) 1,746 6.5 -9.3°
Sets 02:42:43 0° 349° (NNW) 2,640 7.4 -9.1°
